Location: Unspecified
(0.0000°N, 0.0000°E)
Time: 10:36:16
(UTC+00:00)

Vanguard 2 - Pass Details

Date: 08 December 2017
Orbit: 553 x 2939 km, 32.9° (Epoch: 22 June)

Event Time Altitude Azimuth Distance (km) Brightness Sun altitude
Rises 08:47:34 0° 223° (SW) 6,774 12.2 39.8°
Reaches altitude 10° 08:54:30 10° 207° (SSW) 5,753 12.1 41.2°
Maximum altitude 09:05:36 20° 167° (SSE) 4,657 12.3 43.6°
Drops below altitude 10° 09:15:02 10° 127° (SE) 4,847 12.6 45.6°
Sets 09:20:00 0° 110° (ESE) 5,440 12.6 46.6°
